Home > Weather > Guayaquil > Past weeks

Flag for Ecuador Past Weather in Guayaquil, Ecuador — Yesterday and Last 2 Weeks

Now
75 °F

Passing clouds.


Feels Like: 76 °F
Forecast: 74 / 92 °F
Wind: 9 mph from Southwest

Location: Guayaquil / Simon Bolivar

Current Time: May 27, 2016 at 5:27:52 AM

Latest Report: May 27, 2016 at 5:00 AM


Visibility: N/A

Pressure: 29.83 "Hg

Humidity: 78%

Dew Point: 68 °F

Location of GuayaquilLocation

Past Weather in Guayaquil — Graph

°F

Guayaquil Temperature Yesterday

Maximum temperature yesterday: 90 °F (at 3:00 PM)
Minimum temperature yesterday: 75 °F (at 6:00 AM)
Average temperature yesterday: 81 °F

High & Low Weather Summary for the Past Weeks

 TemperatureHumidityPressure
High93 °F (May 22, 2:00 PM)89% (May 13, 4:00 AM)29.95 "Hg (May 13, 4:00 AM)
Low73 °F (May 23, 1:00 AM)46% (May 21, 1:00 PM)29.68 "Hg (May 15, 3:00 PM)
Average82 °F67%29.83 "Hg
* Reported May 12 4:00 AM — May 27 4:00 AM, Guayaquil, Weather by CustomWeather, © 2016

Note: Actual official high and low records may vary slightly from our data, if they occured in-between our weather recording intervals... More about our weather records

Advertising

Guayaquil Weather History for the Previous 24 Hours

Scroll right to see more
 ConditionsComfort  
Time TempWeatherWind HumidityBarometerVisibility
4:00 AM
Fri, May 27
73 °FPassing clouds.10 mph83%29.80 "HgN/A
3:00 AM75 °FPassing clouds.7 mph74%29.83 "HgN/A
2:00 AM73 °FClear.9 mph78%29.83 "Hg10 mi
1:00 AM73 °FClear.15 mph83%29.86 "Hg10 mi
12:00 AM73 °FClear.16 mph83%29.86 "Hg10 mi
11:00 PM
Thu, May 26
75 °FClear.16 mph78%29.86 "Hg10 mi
10:00 PM77 °FClear.13 mph74%29.86 "Hg10 mi
9:00 PM79 °FClear.12 mph70%29.86 "Hg10 mi
8:00 PM81 °FClear.13 mph66%29.83 "Hg10 mi
7:00 PM82 °FPassing clouds.13 mph62%29.80 "HgN/A
6:00 PM84 °FScattered clouds.12 mph62%29.80 "HgN/A
5:00 PM86 °FPassing clouds.6 mph62%29.77 "HgN/A
4:00 PM90 °FPassing clouds.5 mph55%29.77 "HgN/A
3:00 PM90 °FPassing clouds.6 mph55%29.80 "HgN/A
2:00 PM88 °FScattered clouds.6 mph55%29.83 "HgN/A
1:00 PM88 °FScattered clouds.5 mph55%29.86 "HgN/A
12:00 PM86 °FPartly sunny.8 mph59%29.86 "HgN/A
11:00 AM84 °FBroken clouds.5 mph62%29.89 "HgN/A
10:00 AM82 °FPartly sunny.2 mph62%29.92 "HgN/A
9:00 AM79 °FOvercast.5 mph70%29.92 "HgN/A
7:00 AM77 °FBroken clouds.6 mph74%29.89 "HgN/A
6:00 AM75 °FPassing clouds.8 mph78%29.89 "HgN/A
5:00 AM77 °FPassing clouds.10 mph74%29.89 "HgN/A
Weather by CustomWeather, © 2016

See weather overviewHow to use our weather pages